FW5955 Weather Reports


time (UTC)temp
C
wind
direction
speed
KPH
gust
KPH
rain 1hr
cm
rain 24hr
cm
rain mn
cm
humidity
%
barometer
mb
20260507084509 6 263 6.4 19.3 0.05 0.05 0.05 93 1008.4
20260507083010 6 228 4.8 16.1 0.05 0.05 0.05 93 1008.5
20260507081600 6 185 8.0 22.5 0.05 0.05 0.05 93 1009.0
20260507080057 6 212 8.0 17.7 0.05 0.05 0.05 93 1009.2
20260507074557 6 235 4.8 12.9 0.00 0.00 0.00 92 1009.3
20260507073058 7 278 4.8 12.9 0.00 0.00 0.00 91 1009.7
20260507071552 7 260 8.0 16.1 0.00 0.00 0.00 91 1009.9
20260507070105 7 167 6.4 16.1 0.00 0.00 0.00 91 1009.9
20260507064553 7 232 9.7 17.7 0.00 0.00 0.00 91 1010.0
20260507063054 7 272 6.4 19.3 0.00 0.00 0.00 91 1010.1
20260507061547 7 243 11.3 19.3 0.00 0.00 0.00 92 1010.8
20260507060047 7 265 9.7 20.9 0.00 0.00 0.00 92 1010.7
20260507054544 7 232 8.0 17.7 0.00 0.00 0.00 92 1010.9
20260507053039 7 250 6.4 16.1 0.00 0.00 0.00 92 1011.5
20260507051535 7 219 8.0 17.7 0.00 0.00 0.00 91 1012.0
20260507050057 7 265 9.7 20.9 0.00 0.00 0.00 91 1012.5
20260507044536 7 205 8.0 20.9 0.00 0.00 0.00 91 1012.7
20260507043027 7 262 11.3 22.5 0.00 0.00 0.00 91 1013.0
20260507041526 7 285 9.7 17.7 0.00 0.00 0.00 92 1013.1
20260507040023 7 244 6.4 25.7 0.00 0.00 0.00 90 1013.4
20260507034522 7 271 6.4 14.5 0.00 0.00 0.00 91 1013.5
20260507033021 7 227 6.4 14.5 0.00 0.00 0.00 90 1013.6
20260507031511 8 225 6.4 16.1 0.00 0.00 0.00 90 1014.1
20260507030009 8 123 9.7 19.3 0.00 0.00 0.00 89 1014.2
20260507024506 8 219 11.3 20.9 0.00 0.00 0.00 88 1014.6
20260507023003 8 219 8.0 22.5 0.00 0.00 0.00 89 1015.1
20260507021613 8 242 8.0 22.5 0.00 0.00 0.00 90 1015.4
20260507020058 8 249 6.4 14.5 0.00 0.00 0.00 90 1015.6
20260507014559 8 252 6.4 17.7 0.00 0.00 0.00 91 1015.8
20260507013054 7 226 8.0 14.5 0.00 0.00 0.00 91 1016.0
20260507011557 7 242 9.7 19.3 0.00 0.00 0.00 91 1016.1
20260507010052 7 223 6.4 14.5 0.00 0.00 0.00 91 1016.3
20260507004551 7 169 4.8 14.5 0.00 0.00 0.00 90 1016.5
20260507003049 8 233 4.8 16.1 0.00 0.00 0.00 88 1016.5
20260507001548 8 235 11.3 20.9 0.00 0.00 0.00 89 1016.6
20260507000048 8 209 8.0 16.1 0.00 0.00 0.00 89 1016.6
20260506234604 8 224 8.0 17.7 0.00 0.00 0.00 88 1016.4
20260506233048 8 248 9.7 16.1 0.00 0.00 0.00 88 1016.3
20260506231547 8 243 8.0 17.7 0.00 0.00 0.00 88 1016.4
20260506230046 8 273 12.9 20.9 0.00 0.00 0.00 87 1016.5
20260506224548 9 219 11.3 17.7 0.00 0.00 0.00 86 1016.6
20260506223050 8 250 12.9 24.1 0.00 0.00 0.00 86 1016.7
20260506221544 8 230 12.9 20.9 0.00 0.00 0.00 86 1016.8
20260506220044 8 283 11.3 22.5 0.00 0.00 0.00 86 1016.6
20260506214544 8 207 9.7 20.9 0.00 0.00 0.00 86 1016.5
20260506213043 8 249 12.9 27.4 0.00 0.00 0.00 86 1016.6
20260506211542 8 233 11.3 25.7 0.00 0.00 0.00 85 1016.6
20260506210042 10 247 12.9 29.0 0.00 0.00 0.00 83 1016.2
20260506204551 10 203 16.1 29.0 0.00 0.00 0.00 84 1016.5
20260506203040 10 249 14.5 24.1 0.00 0.00 0.00 83 1016.8
20260506201540 11 186 14.5 29.0 0.00 0.00 0.00 82 1016.8
20260506200044 11 235 20.9 30.6 0.00 0.00 0.00 81 1016.9
20260506194547 11 270 17.7 35.4 0.00 0.00 0.00 81 1017.1
20260506193038 11 240 17.7 33.8 0.00 0.00 0.00 82 1017.1
20260506191537 11 224 22.5 33.8 0.00 0.00 0.00 82 1017.4
20260506190038 11 263 14.5 29.0 0.00 0.00 0.00 83 1017.4
20260506184536 11 217 16.1 35.4 0.00 0.00 0.00 83 1017.5
20260506183040 11 264 20.9 32.2 0.00 0.00 0.00 83 1017.8
20260506181536 11 219 16.1 32.2 0.00 0.00 0.00 82 1018.0
20260506180034 11 228 25.7 37.0 0.00 0.00 0.00 82 1018.1
20260506174533 11 246 20.9 37.0 0.00 0.00 0.00 83 1018.2
20260506173032 11 230 22.5 32.2 0.00 0.00 0.00 83 1018.0
20260506171518 11 236 22.5 35.4 0.00 0.00 0.00 83 1018.1
20260506170009 11 223 22.5 37.0 0.00 0.00 0.00 84 1017.9
20260506164508 11 238 22.5 40.2 0.00 0.00 0.00 85 1018.1
20260506163007 11 237 20.9 37.0 0.00 0.00 0.00 84 1018.0
20260506161506 11 237 25.7 41.8 0.00 0.00 0.00 85 1018.2
20260506160003 11 245 20.9 38.6 0.00 0.00 0.00 85 1018.2
20260506154601 11 220 20.9 38.6 0.00 0.00 0.00 86 1018.4
20260506153100 11 234 22.5 41.8 0.00 0.00 0.00 86 1018.4
20260506151609 10 226 20.9 35.4 0.00 0.00 0.00 87 1018.7
20260506144655 11 264 17.7 37.0 0.00 0.00 0.00 88 1018.6
20260506143057 10 239 17.7 33.8 0.00 0.00 0.00 89 1018.7
20260506141553 10 259 22.5 32.2 0.00 0.00 0.00 89 1018.7
20260506140103 10 204 19.3 33.8 0.00 0.00 0.00 88 1018.7
20260506134551 10 238 20.9 33.8 0.00 0.00 0.00 89 1018.6
20260506133050 9 235 17.7 30.6 0.00 0.00 0.00 90 1018.4
20260506131547 10 248 14.5 27.4 0.00 0.00 0.00 89 1018.3
20260506130058 10 214 20.9 33.8 0.00 0.00 0.00 89 1018.3
20260506124545 11 266 17.7 35.4 0.00 0.00 0.00 88 1018.3
20260506123042 11 255 17.7 32.2 0.00 0.00 0.00 88 1018.2
20260506121540 11 226 20.9 33.8 0.00 0.00 0.00 89 1018.3
20260506120038 10 176 16.1 30.6 0.00 0.00 0.00 90 1018.1
20260506114540 10 226 20.9 32.2 0.00 0.00 0.00 90 1018.0
20260506113030 9 234 16.1 37.0 0.00 0.00 0.00 91 1017.9
20260506111526 9 237 16.1 38.6 0.00 0.00 0.00 91 1018.0
20260506110024 9 249 17.7 33.8 0.00 0.00 0.00 92 1017.9
20260506104520 8 254 16.1 38.6 0.00 0.00 0.00 93 1017.8
20260506103018 8 269 20.9 32.2 0.00 0.00 0.00 93 1017.7
20260506101527 8 232 16.1 30.6 0.00 0.00 0.00 94 1017.7
20260506100013 7 286 19.3 38.6 0.00 0.00 0.00 94 1017.6
20260506094516 7 255 19.3 33.8 0.00 0.00 0.00 94 1017.4
20260506093010 7 235 16.1 29.0 0.00 0.00 0.00 94 1017.2
20260506091508 7 229 17.7 32.2 0.00 0.00 0.00 94 1017.1
20260506090009 7 249 17.7 35.4 0.00 0.00 0.00 94 1016.9